Home   Weather   Adak   Past weeks

Flag for USA Past Weather in Adak, Alaska, USA — Yesterday and Last 2 Weeks

Now
45 °F

Partly sunny.


Feels Like: 38 °F
Forecast: 37 / 42 °F
Wind: 15 mph from West

Location: Adak

Current Time: Apr 27, 2017 at 3:28:28 pm

Latest Report: Apr 27, 2017 at 2:56 pm


Visibility: 10 mi

Pressure: 29.94 "Hg

Humidity: 53%

Dew Point: 28 °F

Location of AdakLocation

Past Weather in Adak — Graph

°F

Adak Temperature Yesterday

Maximum temperature yesterday: 45 °F (at 3:16 pm)
Minimum temperature yesterday: 36 °F (at 12:36 am)
Average temperature yesterday: 39 °F

High & Low Weather Summary for the Past Weeks

 TemperatureHumidityPressure
High45 °F (Apr 12, 4:36 pm)81% (Apr 22, 10:56 am)30.28 "Hg (Apr 22, 10:56 am)
Low27 °F (Apr 17, 4:16 am)42% (Apr 16, 5:16 pm)29.06 "Hg (Apr 23, 6:56 pm)
Average39 °F65%29.60 "Hg
* Reported Apr 12 2:36 pm — Apr 27 2:16 pm, Adak, Weather by CustomWeather, © 2017

Note: Actual official high and low records may vary slightly from our data, if they occured in-between our weather recording intervals... More about our weather records

Advertising

Adak Weather History for the Previous 24 Hours

Scroll right to see more
 ConditionsComfort  
Time TempWeatherWind HumidityBarometerVisibility
2:16 pm
Thu, Apr 27
41 °FMostly cloudy.5 mph57%29.93 "Hg10 mi
1:56 pm41 °FMore clouds than sun.No wind57%29.92 "Hg10 mi
1:36 pm39 °FMostly cloudy.7 mph65%29.91 "Hg10 mi
1:16 pm41 °FOvercast.7 mph61%29.91 "Hg10 mi
12:56 pm41 °FPartly sunny.8 mph57%29.91 "Hg10 mi
12:36 pm41 °FBroken clouds.6 mph57%29.91 "Hg10 mi
12:16 pm39 °FBroken clouds.13 mph61%29.91 "Hg10 mi
11:56 am39 °FBroken clouds.12 mph65%29.91 "Hg7 mi
11:36 am39 °FBroken clouds.14 mph61%29.90 "Hg10 mi
11:16 am41 °FBroken clouds.10 mph57%29.90 "Hg10 mi
10:56 am39 °FBroken clouds.6 mph65%29.89 "Hg10 mi
10:36 am39 °FMostly cloudy.12 mph61%29.88 "Hg10 mi
9:56 am39 °FBroken clouds.13 mph61%29.86 "Hg10 mi
9:36 am39 °FPartly sunny.12 mph56%29.86 "Hg10 mi
9:16 am37 °FPartly sunny.8 mph65%29.85 "Hg10 mi
8:56 am37 °FScattered clouds.15 mph65%29.85 "Hg10 mi
8:36 am37 °FPassing clouds.9 mph65%29.84 "Hg10 mi
8:16 am37 °FScattered clouds.9 mph65%29.83 "Hg10 mi
7:56 am37 °FSunny.12 mph65%29.82 "Hg10 mi
7:36 am37 °FScattered clouds.8 mph60%29.82 "Hg10 mi
7:16 am37 °FBroken clouds.13 mph65%29.80 "Hg10 mi
6:56 am37 °FBroken clouds.12 mph65%29.80 "Hg10 mi
6:36 am37 °FMostly cloudy.13 mph65%29.79 "Hg10 mi
5:56 am37 °FMostly cloudy.10 mph70%29.78 "Hg9 mi
5:36 am37 °FMostly cloudy.7 mph70%29.78 "Hg10 mi
5:16 am37 °FMostly cloudy.9 mph65%29.78 "Hg8 mi
4:56 am39 °FOvercast.12 mph65%29.77 "Hg10 mi
4:36 am37 °FMostly cloudy.17 mph70%29.75 "Hg8 mi
4:16 am39 °FOvercast.15 mph65%29.75 "Hg10 mi
3:56 am37 °FOvercast.8 mph70%29.75 "Hg9 mi
3:36 am37 °FOvercast.No wind65%29.75 "Hg8 mi
3:16 am37 °FMostly cloudy.6 mph70%29.74 "Hg10 mi
2:56 am37 °FOvercast.No wind70%29.74 "Hg10 mi
2:36 am39 °FMostly cloudy.5 mph65%29.73 "Hg10 mi
2:16 am39 °FMostly cloudy.8 mph65%29.72 "Hg10 mi
1:56 am37 °FMostly cloudy.6 mph70%29.72 "Hg10 mi
1:36 am37 °FOvercast.6 mph70%29.71 "Hg9 mi
12:56 am39 °FMostly cloudy.9 mph65%29.69 "Hg10 mi
12:36 am37 °FPartly cloudy.9 mph70%29.69 "Hg8 mi
12:16 am39 °FOvercast.16 mph65%29.68 "Hg8 mi
11:56 pm
Wed, Apr 26
37 °FOvercast.16 mph70%29.67 "Hg8 mi
11:36 pm39 °FOvercast.14 mph65%29.68 "Hg6 mi
11:16 pm37 °FOvercast.10 mph65%29.66 "Hg10 mi
10:56 pm39 °FMostly cloudy.16 mph61%29.65 "Hg10 mi
10:16 pm39 °FOvercast.13 mph61%29.63 "Hg10 mi
9:56 pm39 °FMostly cloudy.12 mph65%29.62 "Hg10 mi
9:36 pm39 °FMostly cloudy.12 mph65%29.61 "Hg10 mi
9:16 pm39 °FMostly cloudy.18 mph65%29.61 "Hg10 mi
8:56 pm39 °FOvercast.13 mph65%29.60 "Hg10 mi
8:36 pm41 °FOvercast.21 mph61%29.59 "Hg10 mi
7:56 pm39 °FMostly cloudy.15 mph65%29.57 "Hg5 mi
7:36 pm41 °FBroken clouds.13 mph61%29.56 "Hg10 mi
7:16 pm39 °FBroken clouds.14 mph70%29.55 "Hg10 mi
6:56 pm41 °FScattered clouds.21 mph66%29.54 "Hg10 mi
6:36 pm41 °FPartly sunny.15 mph61%29.53 "Hg10 mi
5:56 pm41 °FCloudy.18 mph66%29.51 "Hg10 mi
5:36 pm41 °FBroken clouds.18 mph66%29.51 "Hg9 mi
5:16 pm39 °FBroken clouds.12 mph70%29.50 "Hg10 mi
4:36 pm43 °FBroken clouds.16 mph61%29.48 "Hg10 mi
4:16 pm45 °FPartly sunny.15 mph61%29.48 "Hg10 mi
3:56 pm45 °FBroken clouds.17 mph61%29.47 "Hg10 mi
3:36 pm45 °FOvercast.14 mph57%29.46 "Hg10 mi
3:16 pm45 °FMostly cloudy.15 mph61%29.45 "Hg10 mi
Weather by CustomWeather, © 2017

See weather overviewHow to use our weather pages